Location: Antichan
(42.9728°N, 0.6667°E)
Time: 05:30:08
(UTC+00:00)

USA 267 - Visible Passes

Search period start: 26 November 2020 00:00
Search period end: 06 December 2020 00:00
Orbit: 1098 x 1110 km, 122.9° (Epoch: 23 November)

Date Brightness Start Highest point End Pass type
(mag) Time Alt. Az. Time Alt. Az. Time Alt. Az.
26 Nov 3.7 17:40:50 17° E 17:45:30 42° NNE 17:51:33 10° NW visible
26 Nov 3.2 19:28:12 74° SW 19:28:14 74° SW 19:34:47 10° NW visible
26 Nov 5.8 21:15:35 12° W 21:15:35 12° W 21:16:18 10° W visible
27 Nov 4.1 16:57:40 10° ENE 17:03:13 31° NNE 17:08:47 10° NW visible
27 Nov 3.2 18:44:00 51° E 18:45:31 66° NE 18:52:00 10° NW visible
27 Nov 4.9 20:31:21 28° W 20:31:21 28° W 20:34:47 10° WNW visible
28 Nov 3.7 17:59:45 25° E 18:03:03 42° NNE 18:09:08 10° NW visible
28 Nov 3.7 19:47:07 58° WNW 19:47:07 58° WNW 19:52:21 10° NW visible
29 Nov 4.1 17:15:28 11° ENE 17:20:47 31° NNE 17:26:20 10° NW visible
29 Nov 3.1 19:02:50 65° NE 19:03:05 66° NE 19:09:34 10° NW visible
29 Nov 5.3 20:50:11 21° WNW 20:50:11 21° WNW 20:52:21 10° WNW visible
30 Nov 3.7 18:18:31 33° ENE 18:20:37 42° NNE 18:26:41 10° NW visible
30 Nov 4.3 20:05:52 41° WNW 20:05:52 41° WNW 20:09:55 10° NW visible
01 Dec 4.1 17:34:11 16° ENE 17:38:20 31° NNE 17:43:54 10° NW visible
01 Dec 3.4 19:21:32 60° N 19:21:32 60° N 19:27:07 10° NW visible
01 Dec 5.6 21:08:54 15° WNW 21:08:54 15° WNW 21:09:55 10° WNW visible
02 Dec 4.4 16:50:59 10° ENE 16:56:12 26° N 17:01:25 10° NW visible
02 Dec 3.6 18:37:11 40° NE 18:38:11 43° NNE 18:44:15 10° NW visible
02 Dec 4.8 20:24:32 29° WNW 20:24:32 29° WNW 20:27:29 10° NW visible
03 Dec 4.1 17:52:48 21° ENE 17:55:53 31° NNE 18:01:28 10° NW visible
03 Dec 3.9 19:40:09 46° NNW 19:40:09 46° NNW 19:44:41 10° NW visible
04 Dec 4.4 17:08:32 10° ENE 17:13:45 26° N 17:18:58 10° NW visible
04 Dec 3.7 18:55:45 43° NNE 18:55:45 43° NNE 19:01:49 10° NW visible
04 Dec 5.2 20:43:06 21° NW 20:43:06 21° NW 20:45:02 10° NW visible
05 Dec 4.1 18:11:20 26° NE 18:13:27 31° NNE 18:19:02 10° NW visible
05 Dec 4.4 19:58:41 35° NW 19:58:41 35° NW 20:02:15 10° NW visible
